Hourly Data Report for October 13, 2013

All times are specified in Local Standard Time (LST). Add 1 hour to adjust for Daylight Saving Time where and when it is observed.

RANKIN INLET A
NUNAVUT

62°48'38.000" N
92°06'53.000" W
32.30 m
2303405
71083
YRT

Download Data

Hourly Data (October 2013)
Hourly Data Report for October 13, 2013
Temp Definition
°C
Dew Point Temp Definition
°C
Rel Hum Definition
%
Wind Dir Definition
10's deg

Wind Spd Definition
km/h
Visibility Definition
km
Stn Press Definition
kPa
Hmdx Definition


Wind Chill Definition


Weather Definition


TIME
00:00 Legend Double Dagger 1.2 0.3 94 36 39 24.1 99.64     Rain Showers
01:00 Legend Double Dagger 1.2 0.2 93 36 46 24.1 99.62     Rain Showers
02:00 Legend Double Dagger 0.6 -0.3 94 36 45 24.1 99.62     Rain Showers
03:00 Legend Double Dagger 0.4 -0.3 95 36 50 24.1 99.57     Rain Showers,Snow Showers
04:00 Legend Double Dagger 0.4 -0.3 95 36 48 24.1 99.57     Rain Showers,Snow Showers
05:00 Legend Double Dagger 0.3 -0.4 95 36 48 24.1 99.57     Rain Showers,Snow Showers
06:00 Legend Double Dagger 0.1 -0.6 95 36 50 16.1 99.56     Rain Showers,Snow Showers
07:00 Legend Double Dagger -0.1 -0.7 96 36 65 1.2 99.56   -9 Snow Showers
08:00 Legend Double Dagger -0.3 -0.9 96 4 65 0.4 99.56   -9 Snow Showers
09:00 Legend Double Dagger -0.7 -1.1 97 36 65 0.4 99.54   -10 Snow Showers
10:00 Legend Double Dagger -0.8 -1.4 96 4 74 0.4 99.58   -11 Snow Showers
11:00 Legend Double Dagger -1.0 -1.6 96 35 56 0.4 99.59   -10 Snow Showers
12:00 Legend Double Dagger -1.0 -1.7 95 35 49 0.8 99.60   -9 Snow Showers
13:00 Legend Double Dagger -1.3 -2.0 95 35 59 0.8 99.61   -11 Snow Showers
14:00 Legend Double Dagger -1.4 -2.1 95 35 55 0.8 99.62   -10 Snow Showers
15:00 Legend Double Dagger -1.4 -2.1 95 35 62 1.2 99.63   -11 Snow Showers
16:00 Legend Double Dagger -1.1 -1.8 95 35 57 1.2 99.69   -10 Snow Showers
17:00 Legend Double Dagger -1.0 -1.7 95 35 59 1.2 99.74   -10 Snow Showers
18:00 Legend Double Dagger -0.8 -1.5 95 35 61 1.2 99.75   -10 Snow Showers
19:00 Legend Double Dagger -0.8 -1.5 95 35 58 1.6 99.78   -10 Snow Showers
20:00 Legend Double Dagger -0.7 -1.4 95 35 54 1.6 99.80   -9 Snow Showers
21:00 Legend Double Dagger -0.7 -1.3 96 35 54 1.2 99.81   -9 Snow Showers
22:00 Legend Double Dagger -0.6 -1.2 96 35 53 1.6 99.78   -9 Snow Showers
23:00 Legend Double Dagger -0.6 -1.2 96 34 52 1.6 99.82   -9 Snow Showers

Notes on Data Quality.

Legend

  • E = Estimated
  • M = Missing
  • NA = Not Available
  • ‡ = Partner data that is not subject to review by the National Climate Archives
Date modified: